Погода в Варваровке

Россия / Пензенская область     52°57′33″N   43°54′40″E
темп.,
°C
ветер,
м/с
пор.,
м/с
влажн.,
%
обл.,
%
осадки,
мм/ч
давл.,
гПа
погр.,
м
4 декабря, сб
сб400:00+4ююз91891100 0.0 1008573
03:00+4ююз92079100 0.0 1006652
06:00+4ююз111982100 0.2 1004924
09:000зсз41099100 2.2 1008372
12:00+2з5977100 0.4 1009739
15:00+1зюз486983 0.4 1011578
18:00−1з5979100 0.0 1012625
21:00−2з5983100 0.0 1013648
5 декабря, вс
вс500:00−2з4877100 0.0 1014466
03:00−2зсз367935 0.0 1016396
06:00−3зсз248285 0.0 1016263
09:00−3с1178100 0.0 1017129
12:00−1всв116491 0.0 1017295
15:00−1св226696 0.0 101846
18:00−2св227013 0.0 101852
21:00−3в22693 0.0 101937
6 декабря, пн
пн600:00−3в116792 0.0 102013
03:00−3в1165100 0.0 102214
06:00−3юв2366100 0.0 102243
09:00−3юв2465100 0.0 1024131
12:00−1юв365886 0.0 1024299
15:00−1юв3663100 0.0 1024239
18:00−2юв3867100 0.0 1025263
21:00−2юв5107060 0.0 1025385
7 декабря, вт
вт700:00−3юв5127196 0.0 1025430
03:00−3юв61374100 0.0 1025471
06:00−2юв61370100 0.0 1024479
09:00−2ююв71576100 0.0 1023505
12:00−2ююв81694100 0.5 1021545
15:00−1ююв81694100 1.3 1020553
18:000ююв81697100 2.9 1019498
21:00+1ю61597100 3.6 1018517
8 декабря, ср
ср800:00+2ю71696100 0.6 1018461
03:00+2ю71795100 0.6 1017467
06:00+2ю71792100 0.0 1016453
09:00+2ю71790100 0.0 1017422
12:00+3ююв61591100 0.0 1017442
15:00+2ююв51392100 0.0 1016311
18:00+2юв61391100 0.0 1016291
21:00+1юв51393100 0.0 1016323